nws-alerts: Checking more than four warning/county codes can delay the loading of your pages. You should use a cron job to get the data.
EllijayWeather Station Historical Data
Daily Summary for October 28, 2018 Units:  English    Metric   Both
Daily Weekly Monthly Yearly Custom
  High: Low: Average:
Temperature: 66.4 °F 39 °F 53 °F
Dew Point: 57.2 °F 27.1 °F 41.6 °F
Humidity: 76% 54% 65%
Wind Speed: 4.9mph 0mph 0.1mph
Wind Gust: 7mph - -
Wind- - South
Pressure: 30.18 in 29.99 in -
Precipitation: 0 in    
Historical Graphs
 
 
Tabular Data for October 28, 2018
Time Temperature Dew Point Pressure Wind Wind Speed Wind Gust Humidity Rainfall Rate (Hourly) solar
00:04 49.6 °F 42.4 °F 30.06 in Calm   3 mph 76% 0 in meteobridge W/m2
00:09 49.6 °F 42.1 °F 30.06 in Calm     75% 0 in meteobridge W/m2
00:13 49.6 °F 42.4 °F 30.07 in Calm   1 mph 76% 0 in meteobridge W/m2
00:19 49.6 °F 41.7 °F 30.06 in Calm     74% 0 in meteobridge W/m2
00:24 49.5 °F 41.5 °F 30.07 in Calm     74% 0 in meteobridge W/m2
00:29 49.3 °F 41.4 °F 30.07 in Calm     74% 0 in meteobridge W/m2
00:34 48.9 °F 40.6 °F 30.07 in Calm     73% 0 in meteobridge W/m2
00:39 48.9 °F 40.3 °F 30.07 in Calm     72% 0 in meteobridge W/m2
00:44 48.7 °F 39.7 °F 30.07 in Calm     71% 0 in meteobridge W/m2
00:49 48.7 °F 39.4 °F 30.07 in Calm     70% 0 in meteobridge W/m2
00:54 48.6 °F 39.2 °F 30.07 in Calm     70% 0 in meteobridge W/m2
00:59 48.6 °F 39.2 °F 30.07 in Calm     70% 0 in meteobridge W/m2
01:04 48.4 °F 39 °F 30.06 in Calm     70% 0 in meteobridge W/m2
01:09 48.4 °F 38.7 °F 30.07 in Calm     69% 0 in meteobridge W/m2
01:14 48.2 °F 38.1 °F 30.07 in Calm     68% 0 in meteobridge W/m2
01:19 48 °F 37.9 °F 30.07 in Calm     68% 0 in meteobridge W/m2
01:24 48 °F 37.6 °F 30.07 in Calm     67% 0 in meteobridge W/m2
01:29 48 °F 37.6 °F 30.07 in Calm     67% 0 in meteobridge W/m2
01:34 48 °F 37.6 °F 30.07 in Calm     67% 0 in meteobridge W/m2
01:39 47.8 °F 37.4 °F 30.07 in Calm     67% 0 in meteobridge W/m2
01:44 47.8 °F 37 °F 30.07 in Calm     66% 0 in meteobridge W/m2
01:49 47.8 °F 37 °F 30.07 in Calm     66% 0 in meteobridge W/m2
01:54 47.8 °F 36.7 °F 30.07 in Calm     65% 0 in meteobridge W/m2
01:59 47.8 °F 36.7 °F 30.07 in Calm     65% 0 in meteobridge W/m2
02:04 47.7 °F 36.1 °F 30.07 in Calm     64% 0 in meteobridge W/m2
02:09 47.7 °F 36.1 °F 30.07 in Calm     64% 0 in meteobridge W/m2
02:14 47.7 °F 35.6 °F 30.07 in Calm     63% 0 in meteobridge W/m2
02:19 47.7 °F 35.6 °F 30.07 in Calm     63% 0 in meteobridge W/m2
02:24 47.7 °F 35.6 °F 30.07 in Calm     63% 0 in meteobridge W/m2
02:29 47.7 °F 35.6 °F 30.07 in Calm     63% 0 in meteobridge W/m2
02:34 47.7 °F 35.6 °F 30.07 in Calm     63% 0 in meteobridge W/m2
02:39 47.7 °F 35.2 °F 30.07 in Calm     62% 0 in meteobridge W/m2
02:44 47.5 °F 35.1 °F 30.07 in Calm     62% 0 in meteobridge W/m2
02:49 47.5 °F 35.6 °F 30.07 in Calm     63% 0 in meteobridge W/m2
02:54 47.3 °F 35.4 °F 30.07 in Calm     63% 0 in meteobridge W/m2
02:59 47.1 °F 35.2 °F 30.07 in Calm     63% 0 in meteobridge W/m2
03:04 47.1 °F 35.2 °F 30.08 in Calm     63% 0 in meteobridge W/m2
03:09 46.8 °F 34.9 °F 30.08 in Calm     63% 0 in meteobridge W/m2
03:14 46.6 °F 34.7 °F 30.08 in Calm     63% 0 in meteobridge W/m2
03:19 46.2 °F 34.3 °F 30.08 in Calm     63% 0 in meteobridge W/m2
03:24 46 °F 34.5 °F 30.08 in Calm     64% 0 in meteobridge W/m2
03:29 45.9 °F 34.3 °F 30.09 in Calm     64% 0 in meteobridge W/m2
03:34 45.7 °F 34.2 °F 30.08 in Calm     64% 0 in meteobridge W/m2
03:39 45.3 °F 33.8 °F 30.08 in Calm     64% 0 in meteobridge W/m2
03:44 45.1 °F 33.6 °F 30.09 in Calm     64% 0 in meteobridge W/m2
03:49 45 °F 34 °F 30.08 in Calm     65% 0 in meteobridge W/m2
03:54 44.8 °F 33.8 °F 30.08 in Calm     65% 0 in meteobridge W/m2
03:59 44.4 °F 33.4 °F 30.09 in Calm     65% 0 in meteobridge W/m2
04:04 44.2 °F 33.3 °F 30.09 in Calm     65% 0 in meteobridge W/m2
04:09 44.1 °F 33.1 °F 30.09 in Calm     65% 0 in meteobridge W/m2
04:14 43.7 °F 32.7 °F 30.09 in Calm     65% 0 in meteobridge W/m2
04:19 43.5 °F 32.5 °F 30.09 in Calm     65% 0 in meteobridge W/m2
04:24 43.3 °F 32.4 °F 30.09 in Calm     65% 0 in meteobridge W/m2
04:29 43.2 °F 32.2 °F 30.09 in Calm     65% 0 in meteobridge W/m2
04:34 43 °F 32 °F 30.09 in Calm     65% 0 in meteobridge W/m2
04:39 42.8 °F 31.8 °F 30.09 in Calm     65% 0 in meteobridge W/m2
04:44 42.6 °F 31.6 °F 30.10 in Calm     65% 0 in meteobridge W/m2
04:49 42.4 °F 31.5 °F 30.10 in Calm     65% 0 in meteobridge W/m2
04:54 42.3 °F 31.3 °F 30.10 in Calm     65% 0 in meteobridge W/m2
04:59 42.1 °F 31.1 °F 30.11 in Calm     65% 0 in meteobridge W/m2
05:04 41.9 °F 30.9 °F 30.11 in Calm     65% 0 in meteobridge W/m2
05:09 41.7 °F 30.7 °F 30.11 in Calm     65% 0 in meteobridge W/m2
05:14 41.5 °F 30.7 °F 30.11 in Calm     65% 0 in meteobridge W/m2
05:19 41.4 °F 30.6 °F 30.11 in Calm     65% 0 in meteobridge W/m2
05:24 41.4 °F 30.6 °F 30.11 in Calm     65% 0 in meteobridge W/m2
05:29 41.2 °F 30.4 °F 30.12 in Calm     65% 0 in meteobridge W/m2
05:34 41 °F 30.2 °F 30.12 in Calm     65% 0 in meteobridge W/m2
05:39 40.8 °F 30 °F 30.12 in Calm     65% 0 in meteobridge W/m2
05:44 40.8 °F 30 °F 30.12 in Calm     65% 0 in meteobridge W/m2
05:49 40.6 °F 29.8 °F 30.12 in Calm     65% 0 in meteobridge W/m2
05:54 40.6 °F 29.5 °F 30.12 in Calm     64% 0 in meteobridge W/m2
05:59 40.6 °F 29.5 °F 30.12 in Calm     64% 0 in meteobridge W/m2
06:04 40.6 °F 29.1 °F 30.13 in Calm     63% 0 in meteobridge W/m2
06:09 40.8 °F 29.1 °F 30.12 in Calm     63% 0 in meteobridge W/m2
06:14 40.8 °F 29.1 °F 30.13 in Calm     63% 0 in meteobridge W/m2
06:19 40.8 °F 28.8 °F 30.13 in Calm     62% 0 in meteobridge W/m2
06:24 40.8 °F 28.8 °F 30.13 in Calm     62% 0 in meteobridge W/m2
06:29 40.8 °F 29.1 °F 30.13 in Calm     63% 0 in meteobridge W/m2
06:34 40.6 °F 29.1 °F 30.13 in Calm     63% 0 in meteobridge W/m2
06:39 40.5 °F 28.9 °F 30.13 in Calm     63% 0 in meteobridge W/m2
06:44 40.5 °F 28.9 °F 30.13 in Calm     63% 0 in meteobridge W/m2
06:49 40.3 °F 28.8 °F 30.13 in Calm     63% 0 in meteobridge W/m2
06:54 40.1 °F 28.6 °F 30.13 in Calm     63% 0 in meteobridge W/m2
06:59 39.9 °F 28.8 °F 30.13 in Calm     64% 0 in meteobridge W/m2
07:04 39.7 °F 28.6 °F 30.13 in Calm     64% 0 in meteobridge W/m2
07:09 39.7 °F 28.6 °F 30.14 in Calm     64% 0 in meteobridge W/m2
07:14 39.6 °F 28 °F 30.14 in Calm     63% 0 in meteobridge W/m2
07:19 39.6 °F 28.4 °F 30.14 in Calm     64% 0 in meteobridge W/m2
07:24 39.4 °F 28.2 °F 30.14 in Calm     64% 0 in meteobridge W/m2
07:29 39.4 °F 28.2 °F 30.14 in Calm     64% 0 in meteobridge W/m2
07:34 39.2 °F 28 °F 30.15 in Calm     64% 0 in meteobridge W/m2
07:39 39 °F 27.9 °F 30.15 in Calm     64% 0 in meteobridge W/m2
07:44 39 °F 27.9 °F 30.15 in Calm     64% 0 in meteobridge W/m2
07:49 39 °F 27.5 °F 30.15 in Calm     63% 0 in meteobridge W/m2
07:54 39 °F 27.5 °F 30.15 in Calm     63% 0 in meteobridge W/m2
07:59 39 °F 27.5 °F 30.15 in Calm     63% 0 in meteobridge W/m2
08:04 39 °F 27.5 °F 30.15 in Calm     63% 0 in meteobridge W/m2
08:09 39 °F 27.5 °F 30.15 in Calm     63% 0 in meteobridge W/m2
08:14 39 °F 27.5 °F 30.15 in Calm     63% 0 in meteobridge W/m2
08:19 39 °F 27.5 °F 30.15 in Calm     63% 0 in meteobridge W/m2
08:24 39 °F 27.5 °F 30.15 in Calm     63% 0 in meteobridge W/m2
08:29 39 °F 27.1 °F 30.15 in Calm     62% 0 in meteobridge W/m2
08:34 39.2 °F 27.3 °F 30.15 in Calm     62% 0 in meteobridge W/m2
08:39 39.4 °F 27.5 °F 30.15 in Calm     62% 0 in meteobridge W/m2
08:44 39.6 °F 27.7 °F 30.16 in Calm     62% 0 in meteobridge W/m2
08:49 39.7 °F 27.9 °F 30.16 in Calm     62% 0 in meteobridge W/m2
08:54 39.9 °F 27.5 °F 30.16 in Calm     61% 0 in meteobridge W/m2
08:59 40.3 °F 27.9 °F 30.16 in Calm     61% 0 in meteobridge W/m2
09:04 40.5 °F 28 °F 30.16 in Calm     61% 0 in meteobridge W/m2
09:09 40.6 °F 28.2 °F 30.16 in Calm     61% 0 in meteobridge W/m2
09:14 40.8 °F 28 °F 30.16 in Calm     60% 0 in meteobridge W/m2
09:19 41.2 °F 28.4 °F 30.17 in Calm     60% 0 in meteobridge W/m2
09:24 41.5 °F 28.8 °F 30.17 in Calm     60% 0 in meteobridge W/m2
09:29 41.9 °F 28.9 °F 30.17 in Calm     60% 0 in meteobridge W/m2
09:34 42.3 °F 28.9 °F 30.17 in Calm     59% 0 in meteobridge W/m2
09:39 42.6 °F 29.3 °F 30.17 in Calm     59% 0 in meteobridge W/m2
09:44 43 °F 29.7 °F 30.17 in Calm     59% 0 in meteobridge W/m2
09:49 43.3 °F 30 °F 30.17 in Calm     59% 0 in meteobridge W/m2
09:54 43.9 °F 30 °F 30.18 in Calm     58% 0 in meteobridge W/m2
09:59 44.2 °F 30.4 °F 30.18 in Calm     58% 0 in meteobridge W/m2
10:04 44.8 °F 30.9 °F 30.18 in Calm     58% 0 in meteobridge W/m2
10:09 45.1 °F 31.3 °F 30.18 in Calm     58% 0 in meteobridge W/m2
10:14 45.5 °F 31.1 °F 30.18 in Calm     57% 0 in meteobridge W/m2
10:19 45.9 °F 31.5 °F 30.18 in Calm     57% 0 in meteobridge W/m2
10:24 46.4 °F 32 °F 30.18 in Calm     57% 0 in meteobridge W/m2
10:29 46.9 °F 32 °F 30.18 in Calm     56% 0 in meteobridge W/m2
10:34 47.7 °F 32.7 °F 30.18 in Calm     56% 0 in meteobridge W/m2
10:39 48.4 °F 33.4 °F 30.17 in Calm     56% 0 in meteobridge W/m2
10:44 48.7 °F 33.8 °F 30.17 in Calm     56% 0 in meteobridge W/m2
10:49 49.5 °F 34 °F 30.17 in Calm     55% 0 in meteobridge W/m2
10:54 50 °F 34.5 °F 30.17 in Calm     55% 0 in meteobridge W/m2
10:59 50.5 °F 35.1 °F 30.17 in Calm     55% 0 in meteobridge W/m2
11:04 51.1 °F 35.1 °F 30.16 in NW 0.9 mph 2 mph 54% 0 in meteobridge W/m2
11:09 51.6 °F 35.6 °F 30.16 in Calm     54% 0 in meteobridge W/m2
11:14 52.3 °F 36.7 °F 30.16 in Calm     55% 0 in meteobridge W/m2
11:19 53.2 °F 37.9 °F 30.16 in Calm     56% 0 in meteobridge W/m2
11:24 53.6 °F 39.2 °F 30.16 in Calm     58% 0 in meteobridge W/m2
11:29 54 °F 40.5 °F 30.16 in ENE 0.9 mph 2 mph 60% 0 in meteobridge W/m2
11:34 54.7 °F 41.9 °F 30.16 in NNW 0.9 mph 2 mph 62% 0 in meteobridge W/m2
11:39 55.2 °F 43.3 °F 30.16 in Calm   3 mph 64% 0 in meteobridge W/m2
11:44 55.9 °F 44.8 °F 30.16 in NNW 2 mph 2 mph 66% 0 in meteobridge W/m2
11:49 56.5 °F 46 °F 30.16 in Calm     68% 0 in meteobridge W/m2
11:54 57 °F 46.2 °F 30.16 in Calm   1 mph 67% 0 in meteobridge W/m2
11:59 57.4 °F 47.7 °F 30.15 in Calm   5 mph 70% 0 in meteobridge W/m2
12:04 57.6 °F 48.6 °F 30.15 in Calm   4 mph 72% 0 in meteobridge W/m2
12:09 57.9 °F 49.6 °F 30.15 in NW 4.9 mph 5 mph 74% 0 in meteobridge W/m2
12:14 58.3 °F 50 °F 30.15 in Calm   1 mph 74% 0 in meteobridge W/m2
12:19 58.8 °F 50.5 °F 30.15 in Calm   4 mph 74% 0 in meteobridge W/m2
12:24 59.2 °F 50.9 °F 30.15 in NW 2 mph 3 mph 74% 0 in meteobridge W/m2
12:29 59.5 °F 51.6 °F 30.14 in Calm     75% 0 in meteobridge W/m2
12:34 59.7 °F 51.4 °F 30.14 in Calm     74% 0 in meteobridge W/m2
12:39 60.1 °F 52.2 °F 30.14 in Calm   4 mph 75% 0 in meteobridge W/m2
12:44 60.3 °F 52.7 °F 30.14 in NNW 0.9 mph 5 mph 76% 0 in meteobridge W/m2
12:49 60.6 °F 53.1 °F 30.13 in Calm   4 mph 76% 0 in meteobridge W/m2
12:54 61 °F 53.1 °F 30.13 in Calm     75% 0 in meteobridge W/m2
12:59 61.2 °F 53.6 °F 30.12 in Calm   4 mph 76% 0 in meteobridge W/m2
13:04 61.2 °F 53.2 °F 30.12 in Calm   1 mph 75% 0 in meteobridge W/m2
13:09 61.3 °F 53.1 °F 30.12 in Calm     74% 0 in meteobridge W/m2
13:14 61.5 °F 53.2 °F 30.11 in Calm   4 mph 74% 0 in meteobridge W/m2
13:19 62.1 °F 53.6 °F 30.11 in NNW 2 mph 3 mph 74% 0 in meteobridge W/m2
13:24 62.2 °F 53.4 °F 30.11 in East 0.9 mph 2 mph 73% 0 in meteobridge W/m2
13:29 62.6 °F 52.7 °F 30.11 in Calm   4 mph 70% 0 in meteobridge W/m2
13:34 62.8 °F 52.9 °F 30.11 in Calm     70% 0 in meteobridge W/m2
13:39 63 °F 53.1 °F 30.10 in Calm     70% 0 in meteobridge W/m2
13:44 63.1 °F 53.2 °F 30.10 in Calm   4 mph 70% 0 in meteobridge W/m2
13:49 63.3 °F 54.1 °F 30.09 in Calm   2 mph 72% 0 in meteobridge W/m2
13:54 63.3 °F 54.9 °F 30.09 in NE 0.9 mph 1 mph 74% 0 in meteobridge W/m2
13:59 63.3 °F 53.4 °F 30.09 in Calm     70% 0 in meteobridge W/m2
14:04 63.7 °F 54.1 °F 30.08 in East 0.9 mph 1 mph 71% 0 in meteobridge W/m2
14:09 63.7 °F 53.8 °F 30.08 in Calm     70% 0 in meteobridge W/m2
14:14 63.9 °F 53.4 °F 30.08 in East 0.9 mph 1 mph 69% 0 in meteobridge W/m2
14:19 64 °F 54.1 °F 30.08 in Calm   3 mph 70% 0 in meteobridge W/m2
14:24 64 °F 53.6 °F 30.08 in Calm   3 mph 69% 0 in meteobridge W/m2
14:29 64.2 °F 53.8 °F 30.07 in East 2 mph 2 mph 69% 0 in meteobridge W/m2
14:34 64.4 °F 54.3 °F 30.07 in NNE 0.9 mph 5 mph 70% 0 in meteobridge W/m2
14:39 64.6 °F 53.8 °F 30.07 in Calm   4 mph 68% 0 in meteobridge W/m2
14:44 64.8 °F 53.6 °F 30.06 in Calm   3 mph 67% 0 in meteobridge W/m2
14:49 64.9 °F 53.8 °F 30.06 in East 0.9 mph 7 mph 67% 0 in meteobridge W/m2
14:54 64.9 °F 53.8 °F 30.06 in Calm   6 mph 67% 0 in meteobridge W/m2
14:59 64.9 °F 54.5 °F 30.05 in Calm   1 mph 69% 0 in meteobridge W/m2
15:04 65.1 °F 55 °F 30.05 in Calm   4 mph 70% 0 in meteobridge W/m2
15:09 65.1 °F 55 °F 30.05 in North 4.9 mph 6 mph 70% 0 in meteobridge W/m2
15:14 65.3 °F 55.2 °F 30.04 in Calm   2 mph 70% 0 in meteobridge W/m2
15:19 65.3 °F 54.9 °F 30.04 in NNW 0.9 mph 2 mph 69% 0 in meteobridge W/m2
15:24 65.5 °F 55.4 °F 30.03 in Calm   1 mph 70% 0 in meteobridge W/m2
15:29 65.7 °F 55.2 °F 30.03 in Calm   2 mph 69% 0 in meteobridge W/m2
15:34 65.7 °F 55.2 °F 30.03 in Calm   2 mph 69% 0 in meteobridge W/m2
15:39 65.7 °F 55.6 °F 30.03 in SE 0.9 mph 2 mph 70% 0 in meteobridge W/m2
15:44 65.7 °F 55.6 °F 30.03 in Calm     70% 0 in meteobridge W/m2
15:49 65.7 °F 56.3 °F 30.03 in NE 2.9 mph 3 mph 72% 0 in meteobridge W/m2
15:54 65.8 °F 55.4 °F 30.03 in Calm   6 mph 69% 0 in meteobridge W/m2
15:59 66 °F 55.9 °F 30.03 in Calm   1 mph 70% 0 in meteobridge W/m2
16:04 66 °F 56.7 °F 30.02 in NNW 2.9 mph 3 mph 72% 0 in meteobridge W/m2
16:09 66 °F 56.3 °F 30.02 in Calm   1 mph 71% 0 in meteobridge W/m2
16:14 66 °F 56.7 °F 30.02 in Calm   4 mph 72% 0 in meteobridge W/m2
16:19 65.8 °F 56.5 °F 30.02 in Calm   1 mph 72% 0 in meteobridge W/m2
16:24 66 °F 56.7 °F 30.02 in Calm   2 mph 72% 0 in meteobridge W/m2
16:29 66 °F 56.7 °F 30.01 in Calm   2 mph 72% 0 in meteobridge W/m2
16:34 65.8 °F 56.5 °F 30.02 in ENE 2 mph 6 mph 72% 0 in meteobridge W/m2
16:39 66 °F 55.9 °F 30.01 in Calm   1 mph 70% 0 in meteobridge W/m2
16:44 66.4 °F 56.7 °F 30.01 in Calm   4 mph 71% 0 in meteobridge W/m2
16:49 66.4 °F 56.7 °F 30.01 in Calm     71% 0 in meteobridge W/m2
16:54 66.4 °F 57 °F 30.01 in Calm     72% 0 in meteobridge W/m2
16:59 66.4 °F 57 °F 30.01 in Calm     72% 0 in meteobridge W/m2
17:04 66.2 °F 56.8 °F 30.01 in Calm     72% 0 in meteobridge W/m2
17:09 66.2 °F 56.5 °F 30.01 in ENE 2.9 mph 3 mph 71% 0 in meteobridge W/m2
17:14 66.4 °F 56.3 °F 30.01 in Calm   2 mph 70% 0 in meteobridge W/m2
17:19 66.2 °F 56.8 °F 30.01 in NNE 2.9 mph 3 mph 72% 0 in meteobridge W/m2
17:24 66.2 °F 56.1 °F 30.01 in Calm   1 mph 70% 0 in meteobridge W/m2
17:29 66.2 °F 57.2 °F 30.00 in Calm     73% 0 in meteobridge W/m2
17:34 65.8 °F 57 °F 30.01 in Calm     73% 0 in meteobridge W/m2
17:39 65.7 °F 56.3 °F 30.00 in Calm   2 mph 72% 0 in meteobridge W/m2
17:44 65.3 °F 56.8 °F 30.00 in Calm     74% 0 in meteobridge W/m2
17:49 65.1 °F 56.7 °F 30.00 in Calm     74% 0 in meteobridge W/m2
17:54 64.9 °F 56.5 °F 30.00 in Calm     74% 0 in meteobridge W/m2
17:59 64.8 °F 56.3 °F 30.00 in Calm   1 mph 74% 0 in meteobridge W/m2
18:04 64.8 °F 56.3 °F 30.00 in Calm   1 mph 74% 0 in meteobridge W/m2
18:09 64.6 °F 56.1 °F 30.00 in Calm     74% 0 in meteobridge W/m2
18:14 64.2 °F 55.8 °F 30.00 in Calm     74% 0 in meteobridge W/m2
18:19 64 °F 55.9 °F 29.99 in Calm     75% 0 in meteobridge W/m2
18:24 63.7 °F 55.6 °F 29.99 in Calm     75% 0 in meteobridge W/m2
18:29 63.3 °F 55.2 °F 29.99 in Calm     75% 0 in meteobridge W/m2
18:34 63.1 °F 55 °F 29.99 in Calm     75% 0 in meteobridge W/m2
18:39 62.8 °F 54.3 °F 29.99 in Calm     74% 0 in meteobridge W/m2
18:44 62.4 °F 54 °F 29.99 in Calm     74% 0 in meteobridge W/m2
18:49 62.1 °F 53.2 °F 30.00 in Calm     73% 0 in meteobridge W/m2
18:54 61.7 °F 52.9 °F 30.00 in Calm     73% 0 in meteobridge W/m2
18:59 61.3 °F 52.2 °F 29.99 in Calm     72% 0 in meteobridge W/m2
19:04 61.2 °F 51.6 °F 30.00 in Calm     71% 0 in meteobridge W/m2
19:09 61 °F 51.1 °F 30.00 in Calm     70% 0 in meteobridge W/m2
19:14 60.6 °F 50.4 °F 30.00 in Calm     69% 0 in meteobridge W/m2
19:19 60.4 °F 50.2 °F 30.01 in Calm     69% 0 in meteobridge W/m2
19:24 60.3 °F 49.6 °F 30.01 in Calm     68% 0 in meteobridge W/m2
19:29 60.1 °F 49.1 °F 30.00 in Calm     67% 0 in meteobridge W/m2
19:34 59.7 °F 48.7 °F 30.01 in Calm     67% 0 in meteobridge W/m2
19:39 59.7 °F 48.7 °F 30.01 in Calm     67% 0 in meteobridge W/m2
19:44 59.5 °F 48.2 °F 30.02 in Calm     66% 0 in meteobridge W/m2
19:49 59.4 °F 47.7 °F 30.01 in Calm     65% 0 in meteobridge W/m2
19:54 59.4 °F 47.7 °F 30.02 in Calm     65% 0 in meteobridge W/m2
19:59 59.2 °F 47.5 °F 30.01 in Calm     65% 0 in meteobridge W/m2
20:04 58.8 °F 47.1 °F 30.01 in Calm     65% 0 in meteobridge W/m2
20:09 58.6 °F 46.9 °F 30.01 in Calm     65% 0 in meteobridge W/m2
20:14 58.5 °F 46.4 °F 30.01 in Calm     64% 0 in meteobridge W/m2
20:19 58.5 °F 46.4 °F 30.01 in Calm     64% 0 in meteobridge W/m2
20:24 58.3 °F 46.2 °F 30.01 in Calm     64% 0 in meteobridge W/m2
20:29 58.1 °F 46 °F 30.01 in Calm     64% 0 in meteobridge W/m2
20:34 57.9 °F 45.3 °F 30.01 in Calm     63% 0 in meteobridge W/m2
20:39 57.7 °F 44.8 °F 30.01 in Calm     62% 0 in meteobridge W/m2
20:44 57.7 °F 44.8 °F 30.01 in Calm     62% 0 in meteobridge W/m2
20:49 57.6 °F 44.6 °F 30.01 in Calm     62% 0 in meteobridge W/m2
20:54 57.4 °F 44.4 °F 30.02 in Calm     62% 0 in meteobridge W/m2
20:59 57.2 °F 43.9 °F 30.02 in Calm     61% 0 in meteobridge W/m2
21:04 57.4 °F 43.2 °F 30.02 in Calm     59% 0 in meteobridge W/m2
21:09 57.6 °F 43.3 °F 30.02 in Calm   1 mph 59% 0 in meteobridge W/m2
21:14 57.6 °F 43 °F 30.03 in Calm     58% 0 in meteobridge W/m2
21:19 57.6 °F 43.3 °F 30.03 in Calm     59% 0 in meteobridge W/m2
21:24 57.4 °F 43.2 °F 30.03 in Calm     59% 0 in meteobridge W/m2
21:29 57.2 °F 43 °F 30.03 in Calm     59% 0 in meteobridge W/m2
21:34 57 °F 42.4 °F 30.03 in Calm     58% 0 in meteobridge W/m2
21:39 57 °F 42.4 °F 30.03 in Calm     58% 0 in meteobridge W/m2
21:44 56.8 °F 42.3 °F 30.03 in Calm     58% 0 in meteobridge W/m2
21:49 56.8 °F 42.3 °F 30.03 in Calm     58% 0 in meteobridge W/m2
21:54 56.8 °F 41.7 °F 30.03 in Calm     57% 0 in meteobridge W/m2
21:59 56.7 °F 41.5 °F 30.03 in Calm     57% 0 in meteobridge W/m2
22:04 56.7 °F 41.5 °F 30.03 in Calm     57% 0 in meteobridge W/m2
22:09 56.5 °F 41.4 °F 30.03 in Calm     57% 0 in meteobridge W/m2
22:14 56.3 °F 41.2 °F 30.03 in Calm     57% 0 in meteobridge W/m2
22:19 56.3 °F 41.2 °F 30.02 in Calm     57% 0 in meteobridge W/m2
22:24 56.1 °F 40.6 °F 30.02 in Calm     56% 0 in meteobridge W/m2
22:29 56.1 °F 40.6 °F 30.02 in Calm     56% 0 in meteobridge W/m2
22:34 56.1 °F 40.6 °F 30.03 in Calm   1 mph 56% 0 in meteobridge W/m2
22:39 56.1 °F 40.6 °F 30.03 in Calm     56% 0 in meteobridge W/m2
22:44 56.1 °F 40.6 °F 30.03 in Calm     56% 0 in meteobridge W/m2
22:49 56.1 °F 40.1 °F 30.04 in Calm     55% 0 in meteobridge W/m2
22:54 56.1 °F 40.1 °F 30.04 in Calm     55% 0 in meteobridge W/m2
22:59 56.1 °F 40.1 °F 30.04 in Calm     55% 0 in meteobridge W/m2
23:04 56.1 °F 40.1 °F 30.04 in Calm     55% 0 in meteobridge W/m2
23:09 55.9 °F 39.9 °F 30.04 in Calm     55% 0 in meteobridge W/m2
23:14 55.9 °F 39.9 °F 30.04 in Calm     55% 0 in meteobridge W/m2
23:19 56.1 °F 40.1 °F 30.05 in Calm   3 mph 55% 0 in meteobridge W/m2
23:24 56.1 °F 40.1 °F 30.05 in Calm     55% 0 in meteobridge W/m2
23:29 56.1 °F 40.1 °F 30.05 in Calm     55% 0 in meteobridge W/m2
23:34 56.1 °F 40.1 °F 30.05 in Calm     55% 0 in meteobridge W/m2
23:39 56.1 °F 40.1 °F 30.05 in Calm   1 mph 55% 0 in meteobridge W/m2
23:44 56.1 °F 40.1 °F 30.06 in Calm   2 mph 55% 0 in meteobridge W/m2
23:49 56.1 °F 40.1 °F 30.05 in Calm   1 mph 55% 0 in meteobridge W/m2
23:54 56.1 °F 40.1 °F 30.06 in Calm   2 mph 55% 0 in meteobridge W/m2
23:59 56.1 °F 40.6 °F 30.06 in Calm   1 mph 56% 0 in meteobridge W/m2
EllijayWeather
Compliments of Weather Underground - 2.5 mb